EW4565 Weather Reports


Display with metric or nautical units.
time (UTC)temp
F
wind
direction
speed
MPH
gust
MPH
rain 1hr
in
rain 24hr
in
rain mn
in
humidity
%
barometer
mb
20260901192806 71 285 0.0 3.0 0.00 0.00 0.00 55 1008.4
20260901192306 70 285 0.0 3.0 0.00 0.00 0.00 54 1008.4
20260901191805 70 285 0.0 3.0 0.00 0.00 0.00 54 1008.5
20260901191304 70 285 0.0 3.0 0.00 0.00 0.00 54 1008.7
20260901190810 70 285 0.0 3.0 0.00 0.00 0.00 54 1008.7
20260901190306 70 285 0.0 3.0 0.00 0.00 0.00 54 1008.8
20260901185803 70 285 0.0 3.0 0.00 0.00 0.00 56 1008.9
20260901185306 70 285 0.0 3.0 0.00 0.00 0.00 54 1008.9
20260901184803 70 285 0.0 2.0 0.00 0.00 0.00 54 1009.0
20260901184306 69 285 0.0 2.0 0.00 0.00 0.00 57 1009.4
20260901184118 69 285 0.0 2.0 0.00 0.00 0.00 57 1009.5
20260901183303 69 286 0.0 3.0 0.00 0.00 0.00 59 1009.5
20260901182804 69 286 1.0 4.0 0.00 0.00 0.00 59 1009.5
20260901182622 69 286 1.0 4.0 0.00 0.00 0.00 59 1009.5
20260901181805 68 285 0.0 3.0 0.00 0.00 0.00 59 1009.4
20260901181305 68 285 0.0 3.0 0.00 0.00 0.00 59 1009.5
20260901180804 68 285 0.0 4.0 0.00 0.00 0.00 59 1009.7
20260901180304 68 285 0.0 4.0 0.00 0.00 0.00 60 1009.8
20260901175803 68 289 0.0 4.0 0.00 0.00 0.00 61 1009.8
20260901175623 67 289 0.0 4.0 0.00 0.00 0.00 60 1009.8
20260901175121 67 289 0.0 4.0 0.00 0.00 0.00 59 1010.0
20260901174307 67 289 0.0 3.0 0.00 0.00 0.00 60 1010.2
20260901173804 67 289 0.0 3.0 0.00 0.00 0.00 62 1010.4
20260901173305 67 289 0.0 2.0 0.00 0.00 0.00 62 1010.4
20260901172803 67 289 0.0 3.0 0.00 0.00 0.00 62 1010.4
20260901172618 67 289 0.0 3.0 0.00 0.00 0.00 61 1010.5
20260901171804 67 293 0.0 1.0 0.00 0.00 0.00 63 1010.5
20260901171304 66 293 0.0 1.0 0.00 0.00 0.00 62 1010.5
20260901170806 65 293 0.0 0.0 0.00 0.00 0.00 64 1010.5
20260901170624 65 293 0.0 2.0 0.00 0.00 0.00 65 1010.5
20260901165804 64 293 0.0 2.0 0.00 0.00 0.00 67 1010.6
20260901165306 64 293 0.0 2.0 0.00 0.00 0.00 69 1010.7
20260901164806 63 293 0.0 3.0 0.00 0.00 0.00 69 1010.8
20260901164304 63 293 0.0 3.0 0.00 0.00 0.00 68 1010.7
20260901163804 63 293 0.0 2.0 0.00 0.00 0.00 69 1010.8
20260901163307 63 293 0.0 2.0 0.00 0.00 0.00 68 1010.6
20260901163259 63 293 0.0 2.0 0.00 0.00 0.00 68 1010.8
20260901163254 63 293 0.0 2.0 0.00 0.00 0.00 68 1010.8
20260901161805 62 293 0.0 2.0 0.00 0.00 0.00 68 1010.8
20260901161259 62 293 0.0 1.0 0.00 0.00 0.00 68 1011.2
20260901161119 62 293 0.0 1.0 0.00 0.00 0.00 69 1011.2
20260901160300 61 293 0.0 1.0 0.00 0.00 0.00 68 1011.3
20260901155801 60 293 0.0 1.0 0.00 0.00 0.00 69 1011.4
20260901155259 60 293 0.0 2.0 0.00 0.00 0.00 69 1011.5
20260901154758 60 293 0.0 2.0 0.00 0.00 0.00 69 1011.5
20260901154451 59 293 0.0 2.0 0.00 0.00 0.00 70 1011.7
20260901154406 59 293 0.0 2.0 0.00 0.00 0.00 70 1011.6
20260901153300 59 293 0.0 1.0 0.00 0.00 0.00 70 1011.7
20260901152800 59 293 0.0 1.0 0.00 0.00 0.00 71 1011.8
20260901152254 58 293 0.0 1.0 0.00 0.00 0.00 71 1011.7
20260901151754 58 293 0.0 0.0 0.00 0.00 0.00 71 1011.7
20260901151438 57 293 0.0 0.0 0.00 0.00 0.00 73 1011.8
20260901151400 58 293 0.0 0.0 0.00 0.00 0.00 72 1011.7
20260901150256 57 293 0.0 0.0 0.00 0.00 0.00 75 1011.8
20260901145756 56 293 0.0 0.0 0.00 0.00 0.00 75 1011.8
20260901145633 56 293 0.0 0.0 0.00 0.00 0.00 77 1011.8
20260901144754 55 293 0.0 0.0 0.00 0.00 0.00 77 1011.8
20260901144249 55 293 0.0 0.0 0.00 0.00 0.00 78 1011.8
20260901143742 54 293 0.0 0.0 0.00 0.00 0.00 78 1011.8
20260901143243 54 293 0.0 0.0 0.00 0.00 0.00 80 1011.7
20260901143107 54 293 0.0 0.0 0.00 0.00 0.00 79 1011.8
20260901142240 54 293 0.0 0.0 0.00 0.00 0.00 79 1011.8
20260901141742 54 293 0.0 0.0 0.00 0.00 0.00 79 1011.8
20260901141424 53 293 0.0 0.0 0.00 0.00 0.00 80 1011.8
20260901141345 54 293 0.0 0.0 0.00 0.00 0.00 81 1011.8
20260901140555 53 293 0.0 0.0 0.00 0.00 0.00 80 1011.9
20260901135925 53 293 0.0 0.0 0.00 0.00 0.00 80 1011.8
20260901135844 53 293 0.0 0.0 0.00 0.00 0.00 80 1011.7
20260901134737 53 293 0.0 0.0 0.00 0.00 0.00 80 1011.7
20260901134236 53 293 0.0 0.0 0.00 0.00 0.00 80 1011.8
20260901133736 53 293 0.0 0.0 0.00 0.00 0.00 80 1011.8
20260901133234 53 293 0.0 0.0 0.00 0.00 0.00 81 1011.8
20260901132733 53 293 0.0 0.0 0.00 0.00 0.00 80 1011.6
20260901132231 53 293 0.0 0.0 0.00 0.00 0.00 80 1011.6
20260901131732 53 293 0.0 0.0 0.00 0.00 0.00 80 1011.5
20260901131711 53 293 0.0 0.0 0.00 0.00 0.00 79 1011.6
20260901131537 53 293 0.0 0.0 0.00 0.00 0.00 80 1011.5
20260901130234 53 293 0.0 0.0 0.00 0.00 0.00 79 1011.6
20260901125732 53 293 0.0 1.0 0.00 0.00 0.00 79 1011.5